This is the latest recevied weather packets stored in our database for station/object HS0TK-1. If no packets are shown the sender has not sent any weather packets the latest 1 day(s).
| Time | Temp. | Humidity | Pressure | Rain* | Wind** | Luminosity | Snow |
|---|---|---|---|---|---|---|---|
| 1778073876 | 35.56° C | 50% | 1007 hPa | - | - | 0 W/m² | - |
| 1778069236 | 36.11° C | 48% | 1006 hPa | - | - | 0 W/m² | - |
| 1778068310 | 36.11° C | 49% | 1006 hPa | - | - | 0 W/m² | - |
| 1778067381 | 36.11° C | 47% | 1006 hPa | - | - | 0 W/m² | - |
| 1778066455 | 36.67° C | 47% | 1006 hPa | - | - | 0 W/m² | - |
| 1778065518 | 36.67° C | 47% | 1005 hPa | - | - | 0 W/m² | - |
| 1778061772 | 36.67° C | 43% | 1005 hPa | - | - | 0 W/m² | - |
| 1778060845 | 36.67° C | 42% | 1005 hPa | - | - | 0 W/m² | - |
| 1778059856 | 36.67° C | 41% | 1005 hPa | - | - | 0 W/m² | - |
| 1778058922 | 35.56° C | 40% | 1005 hPa | - | - | 0 W/m² | - |
| 1778057990 | 32.78° C | 40% | 1005 hPa | - | - | 0 W/m² | - |
| 1778056119 | 33.89° C | 39% | 1005 hPa | - | - | 0 W/m² | - |
| 1778055194 | 33.89° C | 38% | 1005 hPa | - | - | 0 W/m² | - |
| 1778054266 | 34.44° C | 39% | 1006 hPa | - | - | 0 W/m² | - |
| 1778053338 | 34.44° C | 35% | 1006 hPa | - | - | 0 W/m² | - |
| 1778052411 | 35° C | 35% | 1006 hPa | - | - | 0 W/m² | - |
| 1778050554 | 37.78° C | 41% | 1007 hPa | - | - | 0 W/m² | - |
| 1778048700 | 37.22° C | 42% | 1007 hPa | - | - | 0 W/m² | - |
| 1778046836 | 37.22° C | 43% | 1008 hPa | - | - | 0 W/m² | - |
| 1778045884 | 36.67° C | 44% | 1008 hPa | - | - | 0 W/m² | - |
| 1778044895 | 36.67° C | 46% | 1008 hPa | - | - | 0 W/m² | - |
| 1778043946 | 36.11° C | 47% | 1009 hPa | - | - | 0 W/m² | - |
| 1778043019 | 36.11° C | 49% | 1009 hPa | - | - | 0 W/m² | - |
| 1778042090 | 35.56° C | 48% | 1009 hPa | - | - | 0 W/m² | - |
| 1778041163 | 35.56° C | 48% | 1009 hPa | - | - | 0 W/m² | - |
* Rain since midnight (hover to see other rain measurements)
** Current wind speed in m/s (hover to see current wind gust speed)